sat.trackr.live / text

‹ back to catalog

ONEWEB-0530

NORAD 55796 · 2023-029A

PAYLOAD ACTIVE UNKNOWN

§ Identity

Operator
Country
UK
Launch date
2023-03-09
Launch site
AFETR
Launch vehicle
Mass (kg)
RCS (m²)

Purposes: comms

External: N2YO · Heavens-Above · Gunter

§ Orbital elements

Epoch: 2026-05-25T03:15:16.920000Z

Period
109.03 min
Inclination
87.9164°
Eccentricity
0.0002346
Mean motion
13.20769916 rev/d
Perigee alt
1,180.0 km
Apogee alt
1,183.6 km
Semi-major
7,559.9 km
B*
6.0880e-5
RAAN
279.0673°
Arg perigee
101.9752°
Mean anomaly
258.1644°
Rev number
15,810

§ Raw data

ONEWEB-05301 55796U 23029A   26145.13561250  .00000038  00000+0  60880-4 0  99952 55796  87.9164 279.0673 0002346 101.9752 258.1644 13.20769916158102

JSON: /api/v1/satellites/55796 · /tle

For live sub-satellite position, see the globe view (requires WebGL).

§ Visibility from observer

Set your observer location to see the next 7 days of passes ≥ 10°. The values pass through the URL so the page stays shareable.

No JS? Fill the form by hand. The geolocation button needs JavaScript.